Hourly Data Report for May 25, 2012

All times are specified in Local Standard Time (LST). Add 1 hour to adjust for Daylight Saving Time where and when it is observed.

HAMILTON A
ONTARIO

43°10'25.000" N
79°56'06.000" W
237.70 m
6153193
71263
YHM

Download Data

Hourly Data (May 2012)
Hourly Data Report for May 25, 2012
Temp Definition
°C
Dew Point Temp Definition
°C
Rel Hum Definition
%
Wind Dir Definition
10's deg

Wind Spd Definition
km/h
Visibility Definition
km
Stn Press Definition
kPa
Hmdx Definition


Wind Chill Definition


Weather Definition


TIME
00:00 Legend Double Dagger 21.4 14.9 66 18 16 10.0 98.57 25   LegendNANA
01:00 Legend Double Dagger 20.8 15.2 70 18 19 10.0 98.57 25   Mainly Clear
02:00 Legend Double Dagger 20.0 15.3 74 19 21 10.0 98.57     LegendNANA
03:00 Legend Double Dagger 19.5 15.6 78 19 17 10.0 98.60     LegendNANA
04:00 Legend Double Dagger 19.5 15.8 79 19 21 10.0 98.59     Mostly Cloudy
05:00 Legend Double Dagger 19.0 15.9 82 20 23 10.0 98.63     LegendNANA
06:00 Legend Double Dagger 19.1 16.2 83 19 18 10.0 98.64     LegendNANA
07:00 Legend Double Dagger 21.5 17.2 76 20 21 10.0 98.63 27   Mainly Clear
08:00 Legend Double Dagger 22.8 17.1 70 19 29 10.0 98.60 28   LegendNANA
09:00 Legend Double Dagger 24.0 16.9 64 20 32 10.0 98.52 29   LegendNANA
10:00 Legend Double Dagger 25.0 16.8 60 22 36 10.0 98.55 30   Mostly Cloudy
11:00 Legend Double Dagger 25.9 16.9 57 23 31 10.0 98.60 31   LegendNANA
12:00 Legend Double Dagger 25.5 17.6 61 22 29 10.0 98.60 31   LegendNANA
13:00 Legend Double Dagger 28.0 18.0 54 22 27 10.0 98.58 34   Mainly Clear
14:00 Legend Double Dagger 28.9 18.0 51 23 36 10.0 98.60 35   LegendNANA
15:00 Legend Double Dagger 29.1 18.8 53 23 29 10.0 98.58 36   LegendNANA
16:00 Legend Double Dagger 28.9 18.6 53 23 30 10.0 98.58 35   Mainly Clear
17:00 Legend Double Dagger 28.9 18.3 52 22 28 10.0 98.60 35   LegendNANA
18:00 Legend Double Dagger 27.9 18.2 55 24 24 10.0 98.64 34   LegendNANA
19:00 Legend Double Dagger 25.8 16.0 54 33 14 10.0 98.72 30   Mainly Clear
20:00 Legend Double Dagger 23.8 14.6 56 33 10 10.0 98.81 28   LegendNANA
21:00 Legend Double Dagger 21.5 13.5 60 33 12 10.0 98.88 25   Thunderstorms
22:00 Legend Double Dagger 20.0 12.6 62 34 12 10.0 98.95     Mainly Clear
23:00 Legend Double Dagger 19.1 11.0 59 33 11 10.0 99.00     LegendNANA

Notes on Data Quality.

Legend

  • E = Estimated
  • M = Missing
  • NA = Not Available
  • ‡ = Partner data that is not subject to review by the National Climate Archives
Date modified: